Temp_Advection
nan nan nan nan nan nan nan nan nan nan nan nan nan nan nan nan nan nan nan nan nan nan nan nan nan nan nan nan nan nan nan nan nan nan nan nan nan nan
nan -0 -0 -0 -0 -0 -0 -0 -0 -0 -0 -1 -0 -0 -1 -1 -0 -1 -1 -1 -1 -1 -1 -1 -1 -1 -1 -1 -0 -1 -1 -1 -1 -1 -1 -2 -1 nan
nan -0 -0 -1 -1 -1 -0 -0 -0 -0 -0 -0 -1 -1 -1 -1 -1 -0 -1 -1 -1 -1 -1 -1 -1 -1 -1 -1 -1 -1 -1 -1 -1 -1 -1 -1 -1 nan
nan -0 -0 -1 -1 -1 -0 -0 -0 0 -0 -0 -0 -0 -1 -1 -0 -0 -0 -1 -1 -1 -1 -1 -1 -1 -1 -1 -1 -1 -1 -1 -1 -1 -1 -1 -1 nan
nan -0 -1 -1 -1 -0 -0 0 0 0 0 -0 -0 -0 -0 -1 -0 -0 -0 -0 -1 -1 -1 -1 -1 -1 -1 -1 -1 -1 -1 -1 -0 -0 -1 -1 -1 nan
nan -0 -0 -1 -0 -0 -0 0 0 0 0 0 -0 -0 -1 -1 -0 -0 -0 -1 -1 -1 -1 -1 -1 -1 -1 -1 -1 -1 -1 -1 -1 -1 -1 -1 -1 nan
nan -0 -0 -1 -1 -0 -0 0 0 0 -0 0 -0 -0 -0 -1 -0 -0 -1 -1 -0 -0 -0 -0 -1 -1 -1 -1 -1 -1 -1 -1 -1 -0 -0 -1 -1 nan
nan -1 -1 -1 -1 -1 -1 -0 -0 -0 -0 0 -0 -1 -1 -0 0 0 -0 -1 -1 -0 0 -0 -1 -1 -1 -1 -1 -2 -1 -0 -1 -1 -1 -1 -1 nan
nan -0 -0 -0 -0 -1 -0 -0 -0 -0 -0 -0 0 0 -1 -0 -0 -0 -0 0 -0 -0 -0 -1 -1 -1 -1 -1 -1 -1 -1 -1 -1 -1 -1 -1 -1 nan
nan -0 -0 -0 -1 -0 -0 -0 -0 -0 0 -0 -0 -0 -0 -0 -0 -0 -0 -0 -0 -0 -0 -1 -1 -1 -1 -1 -1 -1 -1 -1 -1 -1 -1 -1 -1 nan
nan -0 -0 -0 -0 -0 0 0 -0 -0 -0 0 -0 -0 -0 -0 -0 -0 -0 -0 -1 -0 -0 -1 -1 -0 -1 -1 -1 -1 -1 -0 0 -1 -1 -2 -2 nan
nan 0 -0 -1 -0 -0 0 -0 -0 0 -0 -0 -0 -1 -0 -0 -1 -1 -0 -0 -0 -1 0 -0 -1 -1 -1 -1 -0 -0 -1 -0 -1 -1 -1 -2 -3 nan
nan -0 -0 -1 -1 -1 -0 0 -0 -0 -0 -1 -0 -0 -1 -1 -0 -0 -0 0 0 -2 0 1 -0 -0 -0 -1 -1 -0 -0 -1 -0 -1 -1 -2 -2 nan
nan -0 -1 -0 -1 -1 -1 -1 -1 -0 -0 -0 -1 -1 -0 -0 -0 -0 0 1 1 1 -0 1 0 -0 -0 -0 -1 -1 -1 0 0 -0 0 -0 -0 nan
nan 0 -0 -1 -0 -1 -1 -1 -1 -1 -0 -1 -0 -0 -0 -0 -0 -0 -0 0 0 1 -0 -0 -0 -0 -0 0 -0 -0 -1 -0 0 0 1 1 1 nan
nan -0 -0 -1 -1 -0 -1 -1 -1 -0 -0 -0 -0 -0 -0 -0 0 0 -0 -1 -0 -0 -0 -0 -0 -0 -0 -0 0 -0 0 -0 0 0 0 1 1 nan
nan -0 -0 -0 -1 -1 -1 -0 -0 -0 -0 -0 -0 -0 -0 0 0 0 0 -1 -1 -0 -0 -0 0 0 -0 -0 -0 -0 0 0 0 1 1 -0 -0 nan
nan -0 -0 -0 -0 -0 -0 -0 -0 -0 -0 0 0 0 0 0 -0 -0 -0 0 -0 -0 0 0 -0 0 -0 0 0 0 1 1 1 1 1 1 0 nan
nan -0 -0 -0 -0 -0 -0 -0 -0 0 0 0 1 1 0 0 -0 -0 -0 -0 0 0 0 0 0 -0 -0 0 1 0 1 1 1 0 -0 -0 0 nan
nan -0 -0 -0 -0 -0 -0 -0 -0 0 0 1 1 0 0 0 0 -0 0 0 0 0 0 0 0 0 0 0 1 1 1 1 0 0 0 -0 0 nan
nan -0 -0 -0 0 0 0 0 0 0 0 0 0 0 0 0 0 0 0 0 0 0 0 0 0 0 0 0 0 1 1 1 1 0 0 -0 -0 nan
nan -0 -0 0 0 0 0 0 0 0 1 0 0 1 1 1 1 0 0 0 0 0 0 0 0 0 0 -0 0 1 1 1 1 0 0 0 -0 nan
nan nan nan nan nan nan nan nan nan nan nan nan nan nan nan nan nan nan nan nan nan nan nan nan nan nan nan nan nan nan nan nan nan nan nan nan nan nan
Wind_Speed
27 29 33 33 33 31 32 34 33 42 47 46 44 42 37 42 40 31 40 40 39 41 42 39 38 40 42 42 41 45 45 44 43 41 39 39 37 35
30 35 34 33 34 35 32 32 34 35 45 49 45 45 49 43 40 40 38 39 39 38 39 39 40 43 43 43 43 45 43 43 43 42 40 39 38 35
34 36 34 35 34 33 36 34 35 33 36 49 50 47 46 48 54 44 38 38 40 36 38 38 42 44 44 44 43 42 43 42 42 39 38 38 38 36
40 37 36 34 36 34 33 36 34 38 39 41 48 44 46 50 46 47 41 38 33 39 40 44 48 44 41 43 45 46 45 42 38 39 37 35 37 34
39 37 36 32 34 34 35 39 40 38 35 37 47 47 45 45 50 45 38 37 40 41 46 41 39 38 41 41 40 41 43 42 36 34 34 35 36 35
38 35 30 30 33 36 38 37 33 34 38 43 44 42 44 48 37 39 44 44 48 41 46 40 37 40 37 36 37 39 40 36 36 35 35 34 35 32
37 30 31 31 31 33 33 36 39 42 43 38 40 44 41 43 38 43 44 52 49 45 38 45 41 41 44 40 35 35 33 32 32 33 33 34 34 34
34 34 33 34 33 33 36 38 36 38 43 40 45 47 48 47 45 41 46 48 49 37 42 49 42 45 43 39 34 37 32 34 37 36 36 36 36 36
33 34 35 35 37 41 40 38 40 37 38 42 45 45 45 43 48 48 45 40 44 48 45 46 42 41 37 48 38 36 37 37 36 35 35 36 36 36
36 34 35 39 41 37 41 44 44 45 45 40 39 40 43 45 43 42 44 49 47 42 35 41 39 46 45 42 38 38 34 32 34 30 31 33 32 33
35 32 35 40 38 38 41 45 45 44 45 39 36 37 39 38 35 39 41 40 44 39 38 40 39 46 44 44 37 27 26 27 34 36 32 33 36 36
36 40 38 36 39 39 41 45 40 45 44 41 44 46 39 41 34 34 39 41 42 43 36 38 41 40 39 32 17 36 31 39 31 27 27 33 38 39
42 44 42 40 38 39 40 36 39 41 40 43 41 43 42 41 40 39 37 38 42 42 40 35 39 40 32 33 33 30 38 36 24 24 19 27 37 43
39 44 45 40 40 37 34 36 34 35 38 40 41 39 40 42 39 37 35 34 35 37 35 31 36 37 36 31 29 39 30 21 23 20 7 7 12 28
41 40 38 38 35 36 34 33 32 36 38 40 39 42 41 39 38 37 34 32 32 29 24 22 19 18 22 21 28 31 25 23 19 12 11 15 18 23
42 40 37 35 34 33 36 38 37 37 35 37 39 41 40 39 38 34 37 35 35 28 28 27 20 17 13 17 22 19 16 17 14 13 13 14 19 19
38 38 40 37 38 38 39 39 40 39 39 40 40 40 39 37 34 33 34 33 30 29 33 34 20 11 9 13 17 15 14 10 10 16 24 27 34 34
34 36 35 35 36 37 39 42 42 41 41 40 38 37 35 33 33 32 32 32 28 28 29 31 22 13 6 2 12 12 9 13 16 23 29 35 37 38
33 34 35 36 37 39 41 42 42 42 38 37 37 34 34 33 32 33 32 33 29 28 25 24 22 18 16 15 18 10 13 19 22 31 36 38 40 38
34 33 36 37 38 40 42 41 41 39 36 36 35 35 34 34 36 35 31 29 25 23 23 19 17 17 15 14 18 17 17 27 31 36 38 40 41 37
34 37 35 37 39 41 40 38 37 36 34 36 37 36 35 36 34 27 25 23 19 21 19 18 13 11 11 24 25 25 22 25 29 35 36 40 39 39
36 35 36 36 37 38 36 36 36 35 35 37 37 36 34 32 26 24 24 22 20 18 12 11 10 10 16 24 25 24 23 22 22 24 27 28 23 25
34 34 36 34 37 36 35 34 33 32 34 35 35 34 34 28 23 22 20 18 15 14 10 10 11 12 15 18 21 20 20 20 21 23 25 22 29 34
Wind_Direction
316 310 310 307 307 304 300 302 301 305 304 305 306 309 305 307 306 300 299 302 298 297 296 297 296 294 292 290 288 287 285 284 282 282 281 277 276 269
308 310 310 308 305 304 305 300 299 298 299 302 305 305 306 307 301 305 299 300 299 298 296 297 296 294 292 289 286 287 284 284 282 279 277 276 270 268
309 313 308 307 307 304 304 303 300 299 295 296 300 305 305 305 309 307 303 300 298 297 297 298 297 294 289 286 285 286 284 285 281 278 274 271 268 269
312 313 311 308 306 308 305 304 301 297 297 295 298 303 302 307 303 302 304 301 297 298 298 296 293 293 290 289 287 285 282 282 278 280 276 272 268 268
315 316 314 313 311 309 307 304 303 300 295 294 299 302 302 302 302 300 301 300 301 302 301 297 298 297 291 288 287 286 283 281 279 284 283 270 272 271
318 319 318 315 310 308 308 307 305 304 304 299 296 298 305 303 302 308 305 305 306 305 302 301 299 296 292 291 289 284 283 284 285 285 281 274 271 269
320 324 319 312 308 306 307 308 309 306 303 313 302 308 312 310 309 306 303 308 304 304 301 301 304 301 302 300 296 292 287 286 284 281 278 275 272 261
325 320 319 315 313 309 306 306 304 307 307 309 313 309 305 302 301 302 304 303 303 305 307 302 304 301 303 305 299 292 283 288 289 283 277 275 270 268
319 319 316 314 314 315 314 306 311 309 309 308 305 303 299 307 310 303 302 301 299 301 304 299 302 297 298 302 298 293 290 284 285 280 274 270 265 266
319 316 313 315 318 315 311 312 313 316 311 310 305 304 307 307 305 304 302 299 301 301 303 297 300 298 305 302 299 294 289 282 278 272 270 263 259 253
315 313 314 317 316 315 312 315 316 311 318 311 308 306 305 304 304 305 305 305 301 302 304 300 298 299 304 306 313 300 290 293 290 288 277 263 254 244
318 317 322 318 316 314 318 316 315 320 316 319 312 313 317 321 314 309 306 301 301 301 302 297 299 303 301 305 301 305 304 306 299 284 272 256 246 238
320 322 323 320 316 319 317 318 317 316 317 313 316 320 321 319 317 316 315 309 300 296 313 302 299 300 295 298 304 304 310 313 314 309 293 253 238 225
321 320 320 319 321 320 318 318 318 316 318 322 318 319 318 321 326 328 329 327 324 314 320 317 299 299 297 301 306 313 322 332 341 332 10 167 206 213
319 320 317 321 321 319 324 321 322 329 323 321 319 320 323 330 334 337 339 339 338 344 340 332 325 307 305 314 316 321 330 349 0 16 79 119 155 185
327 324 323 323 325 326 328 331 333 328 324 321 321 326 333 335 338 345 346 347 339 346 349 348 325 293 306 341 335 330 343 328 7 56 75 112 116 143
324 323 328 331 330 330 329 331 330 328 328 329 329 333 336 340 342 349 350 348 348 345 345 351 355 325 266 2 351 345 351 27 54 79 93 93 92 92
325 330 329 329 328 327 327 328 330 330 332 335 339 340 339 342 342 345 349 342 345 349 349 356 4 28 34 289 11 16 64 82 90 92 94 98 95 95
333 332 329 328 326 327 329 328 327 333 340 343 343 344 344 344 343 343 340 338 343 349 357 8 28 46 55 34 44 51 93 97 99 95 94 92 92 93
336 331 328 328 330 331 330 330 334 341 345 346 347 348 349 348 342 340 339 341 346 355 2 13 26 33 32 45 51 51 106 107 105 102 97 97 97 97
332 329 330 332 333 335 335 339 342 344 344 349 350 350 351 351 346 348 353 355 359 7 2 10 20 34 88 92 79 83 88 104 108 109 109 106 98 97
330 333 333 333 337 340 342 343 344 347 349 349 351 353 352 349 347 355 358 358 8 10 17 29 43 68 90 90 86 87 90 95 105 109 107 106 106 100
335 334 334 337 342 343 344 343 343 344 348 350 352 352 350 348 353 359 357 3 14 18 27 56 70 77 92 93 90 85 86 89 97 94 82 97 109 110
Height
1438 1434 1430 1426 1422 1418 1414 1410 1404 1385 1372 1372 1370 1369 1365 1361 1358 1355 1350 1344 1340 1334 1330 1325 1322 1318 1314 1310 1306 1303 1300 1297 1294 1292 1290 1290 1290 1288
1432 1428 1424 1419 1415 1411 1407 1403 1399 1393 1376 1369 1363 1360 1356 1351 1347 1344 1340 1334 1328 1324 1321 1317 1312 1307 1302 1298 1294 1291 1287 1284 1281 1279 1279 1278 1279 1277
1427 1421 1417 1412 1407 1403 1399 1395 1391 1387 1378 1361 1358 1353 1347 1341 1334 1331 1328 1324 1318 1314 1311 1306 1301 1295 1290 1286 1281 1278 1274 1272 1269 1267 1266 1266 1265 1264
1419 1414 1409 1405 1400 1396 1392 1387 1383 1379 1372 1360 1350 1346 1341 1333 1327 1320 1315 1312 1308 1305 1301 1295 1288 1283 1278 1274 1270 1266 1262 1260 1257 1255 1253 1252 1252 1251
1413 1408 1402 1398 1393 1390 1386 1380 1375 1369 1363 1355 1344 1338 1331 1325 1316 1309 1305 1300 1297 1293 1287 1280 1276 1272 1267 1261 1257 1253 1250 1247 1245 1242 1240 1240 1240 1240
1407 1402 1397 1394 1390 1384 1379 1373 1367 1361 1354 1346 1337 1329 1323 1315 1310 1303 1293 1290 1282 1279 1273 1268 1265 1258 1254 1250 1246 1241 1237 1234 1233 1232 1230 1228 1228 1228
1401 1396 1392 1389 1385 1380 1375 1367 1361 1354 1345 1337 1330 1323 1315 1308 1302 1296 1286 1276 1270 1267 1260 1255 1251 1245 1240 1236 1233 1229 1225 1223 1221 1220 1218 1216 1215 1215
1394 1391 1387 1383 1378 1373 1367 1362 1356 1347 1340 1332 1324 1317 1308 1302 1293 1286 1278 1268 1254 1260 1252 1241 1242 1232 1229 1225 1221 1218 1214 1211 1209 1208 1207 1205 1203 1202
1391 1386 1381 1377 1372 1364 1356 1351 1345 1340 1336 1329 1318 1310 1299 1293 1286 1276 1269 1262 1253 1247 1244 1232 1230 1222 1220 1214 1211 1207 1202 1198 1197 1195 1194 1192 1190 1190
1387 1382 1376 1369 1364 1358 1349 1341 1335 1329 1323 1317 1311 1301 1294 1287 1280 1272 1262 1251 1245 1240 1238 1224 1220 1212 1207 1203 1199 1194 1189 1187 1184 1181 1179 1178 1178 1178
1381 1376 1371 1363 1357 1351 1342 1332 1325 1317 1312 1307 1300 1294 1287 1279 1272 1263 1253 1246 1233 1231 1229 1219 1212 1202 1198 1190 1186 1181 1180 1175 1172 1168 1166 1164 1164 1166
1374 1368 1363 1359 1351 1344 1336 1327 1316 1309 1302 1294 1288 1281 1275 1268 1263 1258 1248 1239 1230 1218 1219 1212 1203 1198 1185 1182 1178 1176 1168 1164 1158 1153 1149 1147 1149 1153
1367 1360 1355 1350 1343 1336 1330 1320 1314 1305 1296 1288 1280 1272 1266 1260 1254 1247 1241 1233 1223 1214 1207 1204 1197 1191 1186 1174 1168 1165 1161 1152 1145 1139 1133 1129 1130 1136
1363 1355 1348 1342 1336 1329 1322 1316 1308 1300 1291 1282 1274 1267 1260 1252 1244 1237 1230 1223 1216 1207 1200 1196 1189 1185 1180 1173 1165 1158 1152 1144 1138 1129 1121 1119 1121 1126
1359 1350 1342 1336 1329 1322 1316 1310 1302 1293 1286 1278 1271 1262 1255 1246 1238 1230 1223 1216 1209 1201 1195 1190 1185 1181 1177 1171 1164 1155 1149 1142 1137 1131 1124 1120 1120 1124
1350 1342 1336 1330 1324 1318 1309 1302 1296 1289 1283 1275 1266 1257 1249 1240 1233 1226 1219 1211 1203 1198 1193 1186 1179 1176 1173 1170 1163 1156 1152 1148 1142 1137 1132 1127 1124 1126
1345 1337 1330 1324 1317 1310 1304 1297 1291 1284 1277 1269 1261 1252 1244 1237 1230 1224 1217 1211 1204 1198 1190 1182 1175 1171 1170 1169 1163 1159 1155 1151 1147 1143 1138 1135 1132 1132
1341 1334 1327 1321 1315 1308 1300 1292 1286 1279 1272 1265 1257 1249 1242 1235 1228 1222 1217 1212 1206 1199 1191 1184 1175 1171 1169 1170 1167 1162 1159 1156 1153 1150 1147 1144 1144 1146
1339 1332 1325 1319 1312 1305 1297 1290 1282 1275 1268 1261 1253 1247 1240 1233 1227 1220 1215 1210 1204 1199 1194 1187 1181 1176 1174 1172 1170 1167 1165 1163 1161 1158 1157 1156 1157 1159
1336 1329 1323 1316 1308 1301 1294 1287 1279 1271 1264 1258 1251 1244 1238 1231 1224 1219 1215 1209 1204 1199 1195 1191 1186 1183 1180 1178 1175 1175 1173 1170 1169 1168 1169 1169 1170 1174
1332 1326 1319 1312 1305 1298 1291 1284 1277 1269 1263 1256 1249 1242 1236 1230 1224 1219 1214 1209 1205 1201 1197 1193 1190 1188 1185 1182 1182 1181 1181 1180 1179 1179 1180 1179 1182 1184
1329 1322 1315 1309 1302 1295 1287 1280 1273 1267 1261 1254 1247 1241 1235 1230 1225 1219 1215 1210 1206 1203 1200 1197 1195 1193 1191 1189 1189 1189 1189 1190 1190 1190 1190 1191 1193 1195
1325 1319 1312 1305 1298 1291 1284 1277 1271 1265 1260 1253 1247 1241 1236 1230 1225 1220 1216 1212 1209 1206 1203 1201 1199 1198 1197 1196 1196 1196 1196 1197 1198 1199 1201 1204 1205 1208